K8MUD Weather Reports


Display with metric or nautical units.
time (UTC)temp
F
wind
direction
speed
MPH
gust
MPH
rain 1hr
in
rain 24hr
in
rain mn
in
humidity
%
barometer
mb
20260506171220 52 329 5.0 11.0 0.00 0.01 0.00 54 1011.8
20260506171001 52 324 5.0 11.0 0.00 0.01 0.00 54 1011.8
20260506170720 52 331 5.0 11.0 0.00 0.01 0.00 54 1011.7
20260506170523 52 335 5.0 14.0 0.00 0.02 0.00 54 1011.7
20260506170220 52 344 4.0 14.0 0.00 0.02 0.00 53 1011.7
20260506170001 53 340 4.0 14.0 0.00 0.02 0.00 54 1011.7
20260506165719 53 324 4.0 14.0 0.00 0.02 0.00 54 1011.6
20260506165501 53 316 4.0 11.0 0.00 0.02 0.00 55 1011.8
20260506165219 53 308 4.0 11.0 0.00 0.02 0.00 55 1011.7
20260506165022 53 310 4.0 11.0 0.00 0.02 0.00 55 1011.7
20260506164719 53 319 5.0 11.0 0.00 0.02 0.00 55 1011.9
20260506164502 52 328 4.0 10.0 0.00 0.02 0.00 55 1012.0
20260506164219 52 328 4.0 10.0 0.00 0.02 0.00 55 1012.0
20260506164001 52 324 4.0 10.0 0.00 0.02 0.00 53 1011.9
20260506163719 53 323 4.0 9.0 0.00 0.02 0.00 55 1012.0
20260506163502 52 310 4.0 9.0 0.00 0.02 0.00 56 1012.0
20260506163219 52 312 5.0 10.0 0.00 0.02 0.00 56 1012.0
20260506163002 52 321 6.0 14.0 0.00 0.02 0.00 54 1011.9
20260506162719 52 315 6.0 14.0 0.00 0.02 0.00 55 1011.9
20260506162501 52 310 6.0 14.0 0.00 0.02 0.00 54 1011.9
20260506162219 52 308 5.0 14.0 0.00 0.02 0.00 53 1011.9
20260506162001 52 307 5.0 8.0 0.00 0.02 0.00 56 1011.8
20260506161719 52 306 5.0 15.0 0.00 0.02 0.00 56 1011.8
20260506161502 52 311 5.0 15.0 0.00 0.02 0.00 56 1011.8
20260506161219 52 323 5.0 15.0 0.00 0.02 0.00 54 1011.8
20260506161001 52 326 6.0 15.0 0.00 0.02 0.00 55 1011.9
20260506160719 52 336 4.0 10.0 0.00 0.02 0.00 57 1011.8
20260506160501 52 339 4.0 10.0 0.00 0.02 0.00 58 1011.8
20260506160219 52 324 5.0 11.0 0.00 0.02 0.00 56 1011.9
20260506160001 52 310 5.0 11.0 0.00 0.02 0.00 56 1011.9
20260506155719 52 310 5.0 11.0 0.00 0.02 0.00 57 1011.9
20260506155502 52 317 5.0 11.0 0.00 0.02 0.00 56 1012.0
20260506155219 51 314 5.0 11.0 0.00 0.02 0.00 57 1012.0
20260506155001 51 307 5.0 10.0 0.00 0.02 0.00 56 1012.0
20260506154719 51 310 5.0 10.0 0.00 0.02 0.00 56 1012.0
20260506154501 51 310 4.0 10.0 0.00 0.02 0.00 59 1011.9
20260506154219 51 335 4.0 10.0 0.00 0.02 0.00 59 1011.9
20260506154001 51 341 4.0 10.0 0.00 0.02 0.00 58 1011.9
20260506153718 50 352 4.0 11.0 0.00 0.02 0.00 61 1011.9
20260506153501 50 337 5.0 11.0 0.00 0.02 0.00 62 1012.0
20260506153218 50 321 5.0 11.0 0.00 0.02 0.00 60 1011.9
20260506153001 50 322 5.0 11.0 0.00 0.02 0.00 59 1012.0
20260506152718 50 305 5.0 11.0 0.00 0.02 0.00 60 1011.9
20260506152502 50 303 5.0 11.0 0.00 0.02 0.00 59 1011.8
20260506152218 50 308 5.0 11.0 0.00 0.02 0.00 60 1011.9
20260506152002 50 319 5.0 11.0 0.00 0.02 0.00 63 1011.8
20260506151718 49 338 4.0 11.0 0.00 0.02 0.00 61 1011.9
20260506151522 49 350 4.0 11.0 0.00 0.02 0.00 61 1011.9
20260506151218 49 359 3.0 8.0 0.00 0.02 0.00 60 1011.8
20260506151001 49 350 3.0 6.0 0.00 0.02 0.00 60 1011.7
20260506150718 49 323 3.0 8.0 0.00 0.02 0.00 62 1011.7
20260506150502 49 321 4.0 13.0 0.00 0.02 0.00 62 1011.7
20260506150218 49 320 4.0 13.0 0.00 0.02 0.00 61 1011.7
20260506150002 49 321 4.0 13.0 0.00 0.02 0.00 62 1011.8
20260506145718 49 323 5.0 13.0 0.00 0.02 0.00 60 1011.5
20260506145501 49 319 4.0 9.0 0.00 0.02 0.00 62 1011.6
20260506145218 49 335 4.0 9.0 0.00 0.02 0.00 62 1011.7
20260506145022 49 344 4.0 9.0 0.00 0.02 0.00 62 1011.7
20260506144718 49 360 4.0 9.0 0.00 0.02 0.00 62 1011.7
20260506144502 49 356 3.0 8.0 0.00 0.02 0.00 62 1011.5
20260506144217 49 347 3.0 8.0 0.00 0.02 0.00 63 1011.7
20260506144001 49 340 3.0 8.0 0.00 0.02 0.00 64 1011.6
20260506143717 49 350 3.0 8.0 0.00 0.02 0.00 63 1011.5
20260506143502 48 13 3.0 8.0 0.00 0.02 0.00 63 1011.6
20260506143217 48 20 3.0 8.0 0.00 0.02 0.00 63 1011.8
20260506143023 48 15 3.0 9.0 0.00 0.02 0.00 63 1011.6
20260506142717 48 359 3.0 9.0 0.00 0.02 0.00 63 1011.5
20260506142502 48 345 3.0 9.0 0.00 0.02 0.00 62 1011.5
20260506142217 48 315 4.0 9.0 0.00 0.02 0.00 62 1011.5
20260506142022 48 304 4.0 9.0 0.00 0.02 0.00 63 1011.5
20260506141717 48 303 5.0 9.0 0.00 0.02 0.00 64 1011.5
20260506141502 48 302 5.0 9.0 0.00 0.02 0.00 64 1011.5
20260506141217 48 305 5.0 11.0 0.00 0.02 0.00 64 1011.5
20260506141001 47 311 5.0 11.0 0.00 0.02 0.00 65 1011.5
20260506140717 47 318 5.0 11.0 0.00 0.02 0.00 65 1011.5
20260506140501 47 330 5.0 11.0 0.00 0.02 0.00 65 1011.4
20260506140217 47 355 4.0 10.0 0.00 0.02 0.00 65 1011.3
20260506140023 47 6 3.0 10.0 0.00 0.02 0.00 66 1011.4
20260506135717 47 11 3.0 10.0 0.00 0.02 0.00 64 1011.4
20260506135501 47 357 4.0 10.0 0.00 0.02 0.00 65 1011.3
20260506135217 47 342 4.0 10.0 0.00 0.02 0.00 64 1011.2
20260506135002 47 342 4.0 9.0 0.00 0.02 0.00 64 1011.2
20260506134717 47 346 4.0 9.0 0.00 0.02 0.00 65 1011.3
20260506134523 47 349 3.0 9.0 0.00 0.02 0.00 65 1011.3
20260506134216 47 3 3.0 6.0 0.00 0.02 0.00 66 1011.2
20260506134001 47 358 3.0 6.0 0.00 0.02 0.00 66 1011.1
20260506133716 47 354 3.0 6.0 0.00 0.02 0.00 66 1011.1
20260506133523 46 360 3.0 7.0 0.00 0.02 0.00 66 1011.1
20260506133216 46 345 3.0 8.0 0.00 0.02 0.00 66 1011.0
20260506133001 46 343 3.0 8.0 0.00 0.02 0.00 66 1011.0
20260506132716 46 338 4.0 10.0 0.00 0.02 0.00 66 1011.1
20260506132503 46 332 4.0 10.0 0.00 0.02 0.00 67 1011.0
20260506132216 46 338 4.0 10.0 0.00 0.02 0.00 66 1011.0
20260506132002 46 331 5.0 13.0 0.00 0.02 0.00 66 1010.9
20260506131716 46 324 5.0 13.0 0.00 0.02 0.00 66 1011.0
20260506131522 46 327 5.0 13.0 0.00 0.02 0.00 67 1010.9
20260506131216 46 322 5.0 13.0 0.00 0.02 0.00 67 1010.8
20260506131023 46 323 5.0 11.0 0.00 0.02 0.00 67 1010.8
20260506130716 46 317 5.0 11.0 0.00 0.02 0.00 67 1010.6
20260506130501 46 310 5.0 11.0 0.00 0.02 0.00 68 1010.6
20260506130216 46 312 4.0 10.0 0.00 0.02 0.00 69 1010.4
20260506130022 46 316 4.0 9.0 0.00 0.02 0.00 70 1010.3
20260506125716 46 333 3.0 8.0 0.00 0.02 0.00 69 1010.3
20260506125502 45 352 3.0 8.0 0.00 0.02 0.00 69 1010.2
20260506125216 45 355 3.0 10.0 0.00 0.02 0.00 70 1010.3
20260506125001 45 352 3.0 10.0 0.00 0.02 0.00 69 1010.3
20260506124716 45 346 3.0 10.0 0.00 0.02 0.00 69 1010.2
20260506124501 45 340 3.0 10.0 0.00 0.02 0.00 68 1010.1
20260506124216 45 333 2.0 8.0 0.00 0.02 0.00 68 1010.2
20260506124002 45 320 2.0 5.0 0.00 0.02 0.00 68 1010.2
20260506123715 45 319 2.0 4.0 0.00 0.02 0.00 68 1010.1
20260506123522 45 319 1.0 4.0 0.00 0.02 0.00 68 1010.1
20260506123215 45 327 2.0 4.0 0.00 0.02 0.00 69 1010.1
20260506123023 45 334 2.0 5.0 0.00 0.02 0.00 69 1010.1
20260506122715 45 323 4.0 11.0 0.00 0.02 0.00 70 1010.1
20260506122502 45 322 4.0 11.0 0.00 0.02 0.00 69 1010.1
20260506122215 45 318 4.0 11.0 0.00 0.02 0.00 69 1010.1
20260506122001 45 315 5.0 11.0 0.00 0.02 0.00 69 1010.2
20260506121715 45 318 5.0 10.0 0.00 0.02 0.00 69 1010.3
20260506121502 45 317 5.0 10.0 0.00 0.02 0.00 69 1010.3
20260506121215 45 322 5.0 10.0 0.00 0.02 0.00 68 1010.1
20260506121023 45 322 4.0 10.0 0.00 0.02 0.00 69 1010.0
20260506120715 45 324 4.0 9.0 0.00 0.02 0.00 69 1010.0
20260506120501 45 322 4.0 9.0 0.00 0.02 0.00 68 1010.0
20260506120215 45 317 5.0 9.0 0.00 0.02 0.00 68 1009.9
20260506120023 45 317 5.0 9.0 0.00 0.02 0.00 68 1009.9
20260506115715 45 315 5.0 10.0 0.00 0.02 0.00 68 1009.7
20260506115523 45 318 5.0 10.0 0.00 0.02 0.00 67 1009.8
20260506115215 45 319 4.0 10.0 0.00 0.02 0.00 68 1009.7
20260506115001 45 318 4.0 10.0 0.00 0.02 0.00 67 1009.7
20260506114715 45 319 4.0 9.0 0.00 0.02 0.00 67 1009.6
20260506114502 45 319 4.0 9.0 0.00 0.02 0.00 67 1009.5
20260506114215 45 320 4.0 9.0 0.00 0.02 0.00 68 1009.6
20260506114002 45 328 4.0 9.0 0.00 0.02 0.00 68 1009.6
20260506113715 45 334 3.0 8.0 0.00 0.02 0.00 68 1009.4
20260506113502 45 330 3.0 8.0 0.00 0.02 0.00 68 1009.5
20260506113215 45 321 3.0 7.0 0.00 0.02 0.00 68 1009.4
20260506113002 45 318 3.0 7.0 0.00 0.02 0.00 67 1009.3
20260506112714 45 325 3.0 9.0 0.00 0.02 0.00 68 1009.3
20260506112502 46 324 3.0 9.0 0.00 0.02 0.00 68 1009.3
20260506112214 46 319 4.0 9.0 0.00 0.02 0.00 68 1009.4
20260506112002 46 310 4.0 9.0 0.00 0.02 0.00 68 1009.3
20260506111714 46 309 4.0 9.0 0.00 0.02 0.00 68 1009.2
20260506111502 46 306 4.0 9.0 0.00 0.02 0.00 68 1009.3
20260506111214 46 308 4.0 9.0 0.00 0.02 0.00 70 1009.3
20260506111002 46 310 4.0 9.0 0.00 0.02 0.00 69 1009.2
20260506110714 46 303 3.0 7.0 0.00 0.02 0.00 70 1009.2
20260506110502 46 303 3.0 7.0 0.00 0.02 0.00 70 1009.1
20260506110214 46 308 3.0 6.0 0.00 0.02 0.00 70 1009.0
20260506110002 46 311 2.0 6.0 0.00 0.02 0.00 69 1009.0
20260506105714 46 311 3.0 6.0 0.00 0.02 0.00 68 1009.0
20260506105502 46 317 3.0 6.0 0.00 0.02 0.00 68 1008.9
20260506105214 46 323 3.0 8.0 0.00 0.02 0.00 69 1008.7
20260506105024 46 323 3.0 8.0 0.00 0.02 0.00 69 1008.7
20260506104714 46 325 3.0 8.0 0.00 0.02 0.00 69 1008.7
20260506104502 46 325 3.0 8.0 0.00 0.02 0.00 68 1008.6
20260506104214 46 316 2.0 8.0 0.00 0.02 0.00 69 1008.6
20260506104023 46 313 2.0 8.0 0.00 0.02 0.00 69 1008.7
20260506103714 46 310 2.0 5.0 0.00 0.02 0.00 69 1008.5
20260506103523 46 311 2.0 5.0 0.00 0.02 0.00 69 1008.5
20260506103214 46 308 2.0 5.0 0.00 0.02 0.00 69 1008.4
20260506103001 46 312 2.0 5.0 0.00 0.02 0.00 69 1008.5
20260506102713 46 323 2.0 5.0 0.00 0.02 0.00 69 1008.3
20260506102502 46 327 2.0 5.0 0.00 0.02 0.00 69 1008.3
20260506102213 46 341 2.0 4.0 0.00 0.02 0.00 70 1008.3
20260506102002 46 339 2.0 5.0 0.00 0.02 0.00 70 1008.2
20260506101713 46 340 2.0 5.0 0.00 0.02 0.00 70 1008.2
20260506101501 46 341 2.0 5.0 0.00 0.02 0.00 69 1008.2
20260506101213 46 341 2.0 5.0 0.00 0.02 0.00 69 1008.2
20260506101002 46 339 2.0 5.0 0.00 0.02 0.00 70 1008.2
20260506100713 46 333 2.0 5.0 0.00 0.02 0.00 70 1008.4
20260506100503 46 328 2.0 5.0 0.00 0.02 0.00 70 1008.3
20260506100213 46 323 2.0 5.0 0.00 0.02 0.00 71 1008.3
20260506100022 46 324 2.0 5.0 0.00 0.02 0.00 71 1008.2
20260506095713 47 323 2.0 5.0 0.00 0.02 0.00 71 1008.1
20260506095501 47 323 2.0 9.0 0.00 0.02 0.00 71 1008.1
20260506095213 47 328 3.0 9.0 0.00 0.02 0.00 71 1008.1
20260506095002 47 336 3.0 9.0 0.00 0.02 0.00 71 1008.0
20260506094713 47 347 3.0 9.0 0.00 0.02 0.00 71 1008.1
20260506094502 47 355 3.0 9.0 0.00 0.02 0.00 70 1008.2
20260506094213 47 1 4.0 9.0 0.00 0.02 0.00 70 1008.3
20260506094002 47 359 3.0 9.0 0.00 0.02 0.00 70 1008.3
20260506093713 47 351 3.0 8.0 0.00 0.02 0.00 70 1008.2
20260506093523 47 348 3.0 8.0 0.00 0.02 0.00 71 1008.2
20260506093213 48 343 3.0 7.0 0.00 0.02 0.00 71 1008.2
20260506093002 48 339 3.0 8.0 0.00 0.02 0.00 71 1008.1
20260506092713 48 338 3.0 8.0 0.00 0.02 0.00 70 1008.2
20260506092502 48 338 4.0 8.0 0.00 0.02 0.00 70 1008.0
20260506092213 48 334 3.0 8.0 0.00 0.02 0.00 69 1007.9
20260506092002 48 339 3.0 6.0 0.00 0.02 0.00 69 1008.0
20260506091713 48 339 2.0 6.0 0.00 0.02 0.00 69 1007.9
20260506091502 49 341 2.0 6.0 0.00 0.02 0.00 68 1007.9
20260506091213 49 339 2.0 5.0 0.00 0.02 0.00 67 1007.9
20260506091001 49 333 2.0 4.0 0.00 0.02 0.00 67 1007.8
20260506090712 49 331 2.0 4.0 0.00 0.02 0.00 66 1007.7
20260506090502 49 327 2.0 5.0 0.00 0.02 0.00 65 1007.7
20260506090212 49 318 2.0 5.0 0.00 0.02 0.00 65 1007.8
20260506090023 49 318 2.0 5.0 0.00 0.02 0.00 64 1007.7
20260506085712 49 325 3.0 8.0 0.00 0.02 0.00 63 1008.0
20260506085501 49 325 4.0 9.0 0.00 0.02 0.00 63 1008.0
20260506085212 50 323 4.0 9.0 0.00 0.02 0.00 62 1008.0
20260506085002 50 322 4.0 9.0 0.00 0.02 0.00 61 1008.0
20260506084712 50 318 3.0 9.0 0.00 0.02 0.00 61 1007.7
20260506084502 50 317 3.0 8.0 0.00 0.02 0.00 61 1007.6
20260506084212 50 320 2.0 8.0 0.00 0.02 0.00 60 1007.5
20260506084002 50 317 2.0 7.0 0.00 0.02 0.00 60 1007.5
20260506083712 50 312 2.0 7.0 0.00 0.02 0.00 60 1007.5
20260506083502 50 315 3.0 7.0 0.00 0.02 0.00 59 1007.5
20260506083212 50 318 3.0 7.0 0.00 0.02 0.00 59 1007.6
20260506083023 50 321 3.0 9.0 0.00 0.02 0.00 59 1007.5
20260506082712 50 326 3.0 9.0 0.00 0.02 0.00 58 1007.5
20260506082502 50 323 3.0 9.0 0.00 0.02 0.00 58 1007.5
20260506082212 50 315 3.0 9.0 0.00 0.02 0.00 58 1007.5
20260506082003 50 313 3.0 8.0 0.00 0.02 0.00 58 1007.7
20260506081712 50 308 3.0 8.0 0.00 0.02 0.00 59 1007.6
20260506081502 50 308 3.0 8.0 0.00 0.02 0.00 58 1007.7
20260506081212 50 307 3.0 8.0 0.00 0.02 0.00 59 1007.6
20260506081002 51 304 3.0 7.0 0.00 0.02 0.00 58 1007.5
20260506080712 51 302 3.0 6.0 0.00 0.02 0.00 59 1007.8
20260506080502 51 300 3.0 7.0 0.00 0.02 0.00 59 1007.7
20260506080211 51 299 3.0 7.0 0.00 0.02 0.00 60 1007.8
20260506073502 50 296 2.0 5.0 0.00 0.02 0.00 60 1007.4
20260506073211 50 295 3.0 7.0 0.00 0.02 0.00 60 1007.4
20260506073002 50 292 3.0 7.0 0.00 0.02 0.00 60 1007.4
20260506072711 50 291 3.0 7.0 0.00 0.02 0.00 60 1007.5
20260506072501 50 286 3.0 7.0 0.00 0.02 0.00 61 1007.5
20260506072211 50 269 3.0 7.0 0.00 0.02 0.00 61 1007.5
20260506072002 50 257 3.0 7.0 0.00 0.02 0.00 63 1007.5
20260506071711 50 239 2.0 7.0 0.00 0.02 0.00 63 1007.7
20260506071523 50 230 2.0 4.0 0.00 0.02 0.00 65 1007.7
20260506071211 50 228 2.0 4.0 0.00 0.02 0.00 68 1007.6
20260506071002 50 228 2.0 4.0 0.00 0.02 0.00 68 1007.6
20260506070711 50 228 1.0 4.0 0.00 0.02 0.00 70 1007.5
20260506070502 50 228 1.0 3.0 0.00 0.02 0.00 71 1007.4
20260506070211 50 228 1.0 3.0 0.00 0.02 0.00 71 1007.3
20260506062502 50 228 2.0 4.0 0.00 0.02 0.00 71 1007.8
20260506062210 50 229 2.0 4.0 0.00 0.02 0.00 70 1007.9
20260506062002 50 230 1.0 4.0 0.00 0.02 0.00 70 1007.9
20260506061710 50 231 2.0 4.0 0.00 0.02 0.00 70 1007.8
20260506061502 50 232 1.0 4.0 0.00 0.02 0.00 70 1007.9
20260506061210 50 232 1.0 4.0 0.00 0.02 0.00 70 1007.7
20260506061024 50 232 1.0 4.0 0.00 0.02 0.00 70 1007.7
20260506060710 50 231 1.0 3.0 0.00 0.02 0.00 69 1007.7
20260506060502 50 230 1.0 4.0 0.00 0.02 0.00 69 1007.7
20260506060210 50 229 2.0 4.0 0.00 0.02 0.00 68 1007.7
20260506051148 52 250 2.0 4.0 0.00 0.05 0.00 55 1007.9
20260506051003 52 251 2.0 4.0 0.00 0.06 0.00 55 1007.9
20260506050648 52 255 1.0 4.0 0.00 0.07 0.00 55 1007.8
20260506050503 52 257 1.0 4.0 0.00 0.07 0.00 54 1007.9
20260506050148 52 263 1.0 3.0 0.00 0.07 0.00 55 1007.8
20260506045003 52 264 2.0 4.0 0.00 0.07 0.00 54 1007.9
20260506044648 52 270 2.0 4.0 0.00 0.07 0.00 54 1007.8
20260506044504 52 274 2.0 4.0 0.00 0.07 0.00 53 1007.8
20260506044147 52 291 1.0 4.0 0.00 0.07 0.00 54 1007.7
20260506044003 52 296 1.0 4.0 0.00 0.07 0.00 53 1007.6
20260506043647 53 296 2.0 4.0 0.00 0.07 0.00 54 1007.7
20260506043524 53 296 2.0 4.0 0.00 0.07 0.00 54 1007.7
20260506043147 53 290 3.0 6.0 0.00 0.07 0.00 53 1007.6
20260506043024 52 289 3.0 6.0 0.00 0.07 0.00 53 1007.6
20260506042647 53 276 3.0 6.0 0.00 0.07 0.00 53 1007.6
20260506042502 53 273 3.0 6.0 0.00 0.07 0.00 53 1007.6
20260506042147 53 262 2.0 4.0 0.00 0.07 0.00 54 1007.6
20260506042003 53 262 2.0 4.0 0.00 0.07 0.00 54 1007.6
20260506041647 53 261 1.0 4.0 0.00 0.07 0.00 54 1007.6
20260506041503 53 261 1.0 4.0 0.00 0.07 0.00 54 1007.6
20260506041147 53 261 0.0 2.0 0.00 0.07 0.00 54 1007.5
20260506041003 53 261 0.0 1.0 0.00 0.07 0.00 54 1007.5
20260506040647 53 261 1.0 2.0 0.00 0.07 0.00 53 1007.6
20260506040524 53 261 1.0 2.0 0.00 0.07 0.00 53 1007.6
20260506040147 53 261 1.0 3.0 0.00 0.07 0.00 54 1007.8
20260506040003 53 261 1.0 3.0 0.00 0.07 0.00 53 1007.8
20260506035647 53 261 2.0 3.0 0.00 0.07 0.07 53 1007.7
20260506035503 53 261 2.0 4.0 0.00 0.07 0.07 53 1007.8
20260506035147 53 261 1.0 4.0 0.00 0.07 0.07 53 1007.8
20260506035003 53 261 1.0 4.0 0.00 0.07 0.07 53 1007.8
20260506034647 53 261 1.0 4.0 0.00 0.07 0.07 53 1007.8
20260506034503 53 261 1.0 4.0 0.00 0.07 0.07 54 1007.8
20260506034147 53 261 1.0 4.0 0.00 0.07 0.07 53 1007.9
20260506034024 53 261 1.0 4.0 0.00 0.07 0.07 53 1007.9
20260506033646 53 261 1.0 4.0 0.00 0.07 0.07 53 1008.1
20260506033524 53 261 1.0 4.0 0.00 0.07 0.07 53 1008.1
20260506033146 53 261 2.0 4.0 0.00 0.07 0.07 53 1008.1
20260506033004 53 261 2.0 4.0 0.00 0.07 0.07 52 1008.1
20260506032646 53 261 2.0 4.0 0.00 0.07 0.07 52 1008.0
20260506032503 53 261 2.0 4.0 0.00 0.07 0.07 52 1008.0
20260506032146 54 261 2.0 6.0 0.00 0.07 0.07 52 1007.9
20260506032003 54 261 2.0 6.0 0.00 0.07 0.07 52 1007.9
20260506031646 54 261 2.0 6.0 0.00 0.07 0.07 52 1007.9
20260506031502 54 261 2.0 6.0 0.00 0.07 0.07 52 1007.9
20260506031146 54 265 2.0 6.0 0.00 0.07 0.07 52 1007.9
20260506031003 54 267 2.0 6.0 0.00 0.07 0.07 52 1007.9
20260506030646 54 271 3.0 6.0 0.00 0.07 0.07 52 1007.9
20260506030503 54 272 3.0 6.0 0.00 0.07 0.07 52 1008.0
20260506030146 54 275 3.0 7.0 0.00 0.07 0.07 52 1008.1
20260506030003 54 275 3.0 7.0 0.00 0.07 0.07 52 1007.9
20260506025646 54 271 4.0 7.0 0.00 0.07 0.07 52 1007.9
20260506025504 54 269 4.0 7.0 0.00 0.07 0.07 51 1007.9
20260506025146 54 259 3.0 7.0 0.00 0.07 0.07 52 1007.9
20260506025003 54 256 3.0 7.0 0.00 0.07 0.07 53 1007.9
20260506024646 54 252 3.0 8.0 0.00 0.07 0.07 52 1007.9
20260506024503 54 256 3.0 8.0 0.00 0.07 0.07 52 1007.9
20260506024146 54 260 4.0 8.0 0.00 0.07 0.07 52 1007.9
20260506024024 54 261 4.0 8.0 0.00 0.07 0.07 52 1007.9
20260506023645 54 273 4.0 7.0 0.00 0.07 0.07 52 1007.9
20260506023504 54 274 4.0 8.0 0.00 0.07 0.07 52 1007.9
20260506023145 54 280 3.0 8.0 0.00 0.07 0.07 53 1007.9
20260506023003 54 280 3.0 8.0 0.00 0.07 0.07 53 1007.9
20260506022645 54 274 3.0 8.0 0.00 0.07 0.07 53 1007.8
20260506022503 54 271 3.0 8.0 0.00 0.07 0.07 54 1007.9
20260506022145 54 270 3.0 6.0 0.00 0.07 0.07 54 1007.8
20260506022005 54 270 3.0 6.0 0.00 0.07 0.07 54 1007.8
20260506021645 54 267 3.0 6.0 0.00 0.07 0.07 53 1007.7
20260506021503 54 266 3.0 6.0 0.00 0.07 0.07 54 1007.7
20260506021145 54 262 2.0 6.0 0.00 0.07 0.07 54 1007.7
20260506021024 54 262 2.0 6.0 0.00 0.07 0.07 55 1007.7
20260506020645 54 263 2.0 4.0 0.00 0.07 0.07 55 1007.5
20260506020504 54 264 2.0 4.0 0.00 0.07 0.07 54 1007.5
20260506020145 54 266 2.0 7.0 0.00 0.07 0.07 54 1007.4
20260506020003 54 267 2.0 7.0 0.00 0.07 0.07 55 1007.4
20260506015645 54 269 2.0 7.0 0.00 0.07 0.07 56 1007.4
20260506015503 54 269 2.0 7.0 0.00 0.07 0.07 56 1007.4
20260506015145 54 271 2.0 4.0 0.00 0.07 0.07 56 1007.4
20260506015004 54 271 2.0 4.0 0.00 0.07 0.07 56 1007.4
20260506014645 54 271 2.0 4.0 0.00 0.07 0.07 56 1007.3
20260506014503 54 271 2.0 4.0 0.00 0.07 0.07 56 1007.3
20260506014145 54 271 1.0 4.0 0.00 0.07 0.07 58 1007.3
20260506014024 54 271 1.0 3.0 0.00 0.07 0.07 58 1007.3
20260506013645 54 271 2.0 3.0 0.00 0.07 0.07 57 1007.3
20260506013504 54 271 2.0 3.0 0.00 0.07 0.07 57 1007.3
20260506013145 54 271 2.0 3.0 0.00 0.07 0.07 57 1007.3
20260506013004 54 271 2.0 3.0 0.00 0.07 0.07 57 1007.3
20260506012645 55 271 1.0 3.0 0.00 0.07 0.07 58 1007.2
20260506012503 55 271 1.0 4.0 0.00 0.07 0.07 57 1007.3
20260506012145 55 271 2.0 4.0 0.00 0.07 0.07 57 1007.2
20260506012003 55 271 2.0 4.0 0.00 0.07 0.07 57 1007.1
20260506011645 55 271 2.0 4.0 0.00 0.07 0.07 56 1007.2
20260506011503 55 272 2.0 4.0 0.00 0.07 0.07 56 1007.2
20260506011145 55 278 3.0 6.0 0.00 0.08 0.07 57 1007.3
20260506011003 55 279 3.0 6.0 0.00 0.08 0.07 57 1007.3
20260506010645 55 282 3.0 8.0 0.00 0.08 0.07 56 1007.3
20260506010503 55 280 3.0 8.0 0.00 0.08 0.07 57 1007.3
20260506010144 55 273 3.0 8.0 0.00 0.08 0.07 57 1007.4
20260506010004 55 273 3.0 8.0 0.00 0.08 0.07 57 1007.4
20260506005644 55 268 3.0 8.0 0.00 0.08 0.07 57 1007.2
20260506005503 55 268 3.0 8.0 0.00 0.08 0.07 57 1007.2
20260506005144 55 266 3.0 8.0 0.00 0.08 0.07 58 1007.3
20260506005003 55 265 3.0 8.0 0.00 0.08 0.07 57 1007.3
20260506004644 55 263 3.0 7.0 0.00 0.08 0.07 58 1007.3
20260506004504 55 265 3.0 7.0 0.00 0.08 0.07 58 1007.3
20260506004144 55 270 4.0 8.0 0.00 0.08 0.07 58 1007.4
20260506004004 55 270 4.0 8.0 0.00 0.08 0.07 58 1007.4
20260506003614 55 273 4.0 8.0 0.00 0.08 0.07 58 1007.4
20260506003501 55 273 4.0 8.0 0.00 0.08 0.07 58 1007.4
20260506003114 55 272 5.0 9.0 0.00 0.08 0.07 58 1007.3
20260506003023 55 273 5.0 10.0 0.00 0.08 0.07 58 1007.3
20260506002614 55 273 5.0 10.0 0.00 0.08 0.07 59 1007.2
20260506002501 55 274 5.0 10.0 0.00 0.08 0.07 59 1007.1
20260506002114 56 275 6.0 11.0 0.00 0.08 0.07 59 1007.1
20260506002023 56 273 6.0 11.0 0.00 0.08 0.07 59 1007.1
20260506001614 56 269 5.0 11.0 0.00 0.08 0.07 61 1007.0
20260506001501 56 267 5.0 11.0 0.00 0.08 0.07 61 1007.0
20260506001114 56 258 2.0 10.0 0.00 0.08 0.07 63 1006.8
20260506001001 56 262 2.0 10.0 0.00 0.08 0.07 63 1006.8
20260506000614 56 248 1.0 4.0 0.00 0.08 0.07 67 1006.8
20260506000522 56 248 1.0 4.0 0.00 0.08 0.07 68 1006.8
20260506000114 56 248 2.0 3.0 0.00 0.09 0.07 67 1006.7
20260506000001 56 248 2.0 4.0 0.00 0.10 0.07 67 1006.6
20260505235614 56 248 2.0 4.0 0.00 0.11 0.07 67 1006.5
20260505235501 56 248 2.0 4.0 0.00 0.11 0.07 67 1006.5
20260505235114 56 249 2.0 7.0 0.00 0.11 0.07 67 1006.5
20260505235023 56 249 2.0 7.0 0.00 0.11 0.07 67 1006.5
20260505234614 56 250 3.0 7.0 0.00 0.11 0.07 67 1006.6
20260505234522 56 252 3.0 7.0 0.00 0.11 0.07 67 1006.6
20260505234113 56 261 3.0 7.0 0.00 0.11 0.07 67 1006.4
20260505234001 56 263 3.0 7.0 0.00 0.11 0.07 67 1006.4
20260505233613 56 274 2.0 6.0 0.00 0.11 0.07 67 1006.5
20260505233522 56 274 2.0 6.0 0.00 0.11 0.07 67 1006.5
20260505233113 56 274 2.0 4.0 0.00 0.11 0.07 67 1006.4
20260505233001 56 275 2.0 4.0 0.00 0.11 0.07 66 1006.4
20260505232613 56 273 2.0 5.0 0.00 0.11 0.07 67 1006.4
20260505232502 56 274 3.0 6.0 0.00 0.11 0.07 67 1006.4
20260505232113 56 253 3.0 7.0 0.00 0.11 0.07 67 1006.4
20260505232001 56 251 3.0 7.0 0.00 0.11 0.07 67 1006.4
20260505231613 56 251 3.0 9.0 0.00 0.11 0.07 66 1006.4
20260505231502 56 249 3.0 9.0 0.00 0.11 0.07 66 1006.4
20260505231113 56 263 3.0 9.0 0.00 0.11 0.07 66 1006.5
20260505231002 56 266 3.0 9.0 0.00 0.11 0.07 66 1006.5
20260505230613 56 270 3.0 7.0 0.00 0.11 0.07 66 1006.5
20260505230501 56 271 3.0 7.0 0.00 0.11 0.07 66 1006.4
20260505230113 56 277 3.0 7.0 0.00 0.11 0.07 66 1006.4
20260505230001 56 271 3.0 8.0 0.00 0.11 0.07 66 1006.5
20260505225613 56 261 3.0 8.0 0.00 0.11 0.07 66 1006.5
20260505225502 56 260 3.0 8.0 0.00 0.11 0.07 66 1006.5
20260505225113 56 237 3.0 8.0 0.00 0.11 0.07 66 1006.6
20260505225001 56 233 3.0 8.0 0.00 0.11 0.07 66 1006.6
20260505224613 57 244 3.0 6.0 0.00 0.11 0.07 66 1006.7
20260505224501 57 249 3.0 6.0 0.00 0.11 0.07 66 1006.7
20260505224112 57 282 4.0 10.0 0.00 0.11 0.07 66 1006.7
20260505224002 57 286 4.0 10.0 0.00 0.11 0.07 66 1006.8
20260505223612 57 277 5.0 10.0 0.00 0.11 0.07 65 1006.8
20260505223502 57 275 5.0 10.0 0.00 0.11 0.07 65 1006.8
20260505223112 57 256 4.0 9.0 0.00 0.11 0.07 66 1006.8
20260505223001 57 252 3.0 9.0 0.00 0.11 0.07 66 1006.8
20260505222612 57 253 3.0 9.0 0.00 0.11 0.07 66 1006.8
20260505222501 57 249 3.0 8.0 0.00 0.11 0.07 66 1006.8
20260505222112 57 260 4.0 10.0 0.00 0.11 0.07 66 1006.7
20260505222001 57 262 4.0 10.0 0.00 0.11 0.07 66 1006.7
20260505221612 57 263 5.0 11.0 0.00 0.11 0.07 66 1006.6
20260505221501 57 264 5.0 11.0 0.00 0.11 0.07 65 1006.6
20260505221112 57 262 4.0 11.0 0.00 0.11 0.07 66 1006.8
20260505221022 57 261 4.0 11.0 0.00 0.11 0.07 65 1006.8
20260505220612 57 264 3.0 9.0 0.00 0.11 0.07 65 1006.9
20260505220502 57 264 3.0 9.0 0.00 0.11 0.07 65 1006.9
20260505220112 57 264 4.0 7.0 0.00 0.11 0.07 65 1006.8
20260505220001 57 262 4.0 8.0 0.00 0.11 0.07 65 1006.8
20260505215612 57 267 4.0 10.0 0.00 0.11 0.07 65 1006.9
20260505215502 57 269 4.0 10.0 0.00 0.11 0.07 65 1006.9
20260505215112 57 274 4.0 10.0 0.00 0.11 0.07 65 1006.9
20260505215001 57 277 4.0 10.0 0.00 0.11 0.07 65 1006.9
20260505214612 57 282 4.0 10.0 0.00 0.11 0.07 65 1006.9
20260505214501 57 281 4.0 10.0 0.00 0.11 0.07 65 1006.9
20260505214111 57 279 4.0 10.0 0.00 0.11 0.07 65 1006.8
20260505214001 57 276 4.0 10.0 0.00 0.11 0.07 66 1006.8
20260505213611 57 268 5.0 9.0 0.00 0.11 0.07 66 1006.7
20260505213502 58 269 5.0 9.0 0.00 0.11 0.07 65 1006.7
20260505213111 58 268 4.0 9.0 0.00 0.11 0.07 65 1006.7
20260505213002 58 271 4.0 9.0 0.00 0.11 0.07 65 1006.6
20260505212611 58 262 4.0 9.0 0.00 0.11 0.07 66 1006.6
20260505212522 58 258 4.0 9.0 0.00 0.11 0.07 66 1006.5
20260505212111 57 253 5.0 10.0 0.00 0.11 0.07 65 1006.6
20260505212023 58 251 5.0 10.0 0.00 0.11 0.07 66 1006.5
20260505211611 57 257 5.0 12.0 0.00 0.11 0.07 66 1006.5
20260505211501 57 258 5.0 12.0 0.00 0.11 0.07 66 1006.5
20260505211111 57 258 5.0 12.0 0.00 0.11 0.07 66 1006.5
20260505211023 57 259 5.0 12.0 0.00 0.11 0.07 66 1006.5
20260505210611 57 253 4.0 10.0 0.00 0.11 0.07 67 1006.5
20260505210501 57 250 4.0 10.0 0.00 0.11 0.07 67 1006.6
20260505210111 57 238 3.0 7.0 0.00 0.11 0.07 68 1006.7
20260505210001 57 234 3.0 7.0 0.00 0.11 0.07 68 1006.8
20260505205611 57 225 4.0 9.0 0.00 0.11 0.07 68 1006.8
20260505205523 57 225 4.0 9.0 0.00 0.11 0.07 67 1006.8
20260505205111 57 226 4.0 9.0 0.00 0.11 0.07 67 1006.9
20260505205001 57 234 4.0 9.0 0.00 0.11 0.07 68 1006.9
20260505204611 57 247 4.0 9.0 0.00 0.11 0.07 68 1006.9
20260505204501 57 249 4.0 9.0 0.00 0.11 0.07 68 1006.9
20260505204111 57 252 4.0 9.0 0.00 0.11 0.07 68 1006.8
20260505204002 56 248 4.0 9.0 0.00 0.11 0.07 68 1006.8
20260505203610 56 251 4.0 9.0 0.00 0.11 0.07 68 1006.9
20260505203502 56 253 4.0 9.0 0.00 0.11 0.07 68 1006.9
20260505203110 56 259 4.0 9.0 0.00 0.11 0.07 69 1006.8
20260505203002 56 261 4.0 9.0 0.00 0.11 0.07 68 1006.8
20260505202610 56 259 4.0 10.0 0.00 0.11 0.07 69 1006.9
20260505202501 56 257 4.0 10.0 0.00 0.11 0.07 69 1006.9
20260505202110 56 255 3.0 10.0 0.00 0.11 0.07 70 1007.0
20260505202002 56 252 3.0 10.0 0.00 0.11 0.07 70 1007.0
20260505201610 56 237 3.0 7.0 0.00 0.11 0.07 70 1006.9
20260505201502 56 241 3.0 7.0 0.00 0.11 0.07 70 1006.8
20260505201110 56 246 3.0 9.0 0.00 0.11 0.07 69 1006.8
20260505201002 56 251 3.0 9.0 0.00 0.11 0.07 69 1006.8
20260505200610 56 272 3.0 9.0 0.00 0.11 0.07 70 1006.8
20260505200501 56 270 3.0 9.0 0.00 0.11 0.07 71 1006.8
20260505200110 55 265 3.0 7.0 0.00 0.11 0.07 70 1006.8
20260505200002 55 263 3.0 7.0 0.00 0.11 0.07 70 1006.7
20260505195610 55 242 3.0 7.0 0.00 0.11 0.07 70 1006.8
20260505195502 55 238 3.0 7.0 0.00 0.11 0.07 70 1006.8
20260505195110 55 237 3.0 10.0 0.00 0.11 0.07 71 1007.0
20260505195022 55 236 3.0 10.0 0.00 0.11 0.07 70 1006.9
20260505194610 55 234 3.0 10.0 0.00 0.11 0.07 70 1006.9
20260505194502 55 232 3.0 10.0 0.00 0.11 0.07 71 1006.9
20260505194110 55 226 3.0 7.0 0.00 0.11 0.07 71 1007.0
20260505194002 55 225 3.0 7.0 0.00 0.11 0.07 70 1007.0
20260505193610 55 226 4.0 10.0 0.00 0.11 0.07 70 1007.0
20260505193523 55 228 4.0 10.0 0.00 0.11 0.07 70 1007.0
20260505193110 55 226 4.0 11.0 0.00 0.11 0.07 70 1007.1
20260505193002 55 225 4.0 11.0 0.00 0.11 0.07 70 1007.1
20260505192609 55 219 4.0 11.0 0.00 0.11 0.07 71 1007.1
20260505192501 55 219 4.0 11.0 0.00 0.11 0.07 71 1007.1
20260505192109 55 233 5.0 11.0 0.00 0.11 0.07 70 1007.3
20260505192002 55 237 5.0 11.0 0.00 0.11 0.07 71 1007.3
20260505191609 55 241 5.0 11.0 0.00 0.11 0.07 71 1007.3
20260505191502 55 241 5.0 11.0 0.00 0.11 0.07 71 1007.3
20260505191109 55 231 5.0 11.0 0.00 0.11 0.07 71 1007.2
20260505191022 55 231 5.0 11.0 0.00 0.11 0.07 70 1007.2
20260505190609 55 240 6.0 12.0 0.00 0.11 0.07 71 1007.2
20260505190502 55 242 6.0 15.0 0.00 0.11 0.07 70 1007.2
20260505190109 55 244 7.0 15.0 0.00 0.11 0.07 71 1007.1
20260505190002 55 241 7.0 15.0 0.00 0.11 0.07 71 1007.1
20260505185609 55 236 5.0 15.0 0.00 0.11 0.07 72 1007.2
20260505185501 55 232 5.0 11.0 0.00 0.11 0.07 72 1007.0
20260505185109 55 225 4.0 10.0 0.00 0.11 0.07 74 1006.9
20260505185003 55 227 4.0 10.0 0.00 0.11 0.07 74 1006.9
20260505184609 55 221 4.0 10.0 0.00 0.11 0.07 73 1006.9
20260505184502 55 220 4.0 10.0 0.00 0.11 0.07 73 1006.8
20260505184109 55 226 3.0 9.0 0.00 0.11 0.07 75 1006.7
20260505184002 55 227 3.0 9.0 0.00 0.11 0.07 76 1006.7
20260505183609 54 225 4.0 9.0 0.01 0.11 0.07 76 1006.8
20260505183501 54 223 4.0 9.0 0.01 0.11 0.07 76 1006.8
20260505183109 54 215 4.0 8.0 0.01 0.11 0.07 78 1006.7
20260505183002 54 214 4.0 8.0 0.01 0.11 0.07 77 1006.7
20260505182609 54 211 4.0 8.0 0.01 0.11 0.07 79 1006.8
20260505182502 54 213 4.0 8.0 0.01 0.11 0.07 78 1006.7
20260505182109 54 223 3.0 6.0 0.01 0.11 0.07 79 1006.8
20260505182001 54 229 3.0 6.0 0.01 0.11 0.07 80 1006.7
20260505181609 53 224 3.0 8.0 0.01 0.11 0.07 80 1006.6
20260505181501 53 223 3.0 8.0 0.01 0.11 0.07 80 1006.6
20260505181108 53 221 3.0 8.0 0.01 0.11 0.07 79 1006.8
20260505181002 53 219 3.0 8.0 0.01 0.11 0.07 79 1006.8
20260505180608 53 230 3.0 9.0 0.02 0.11 0.07 80 1006.8
20260505180501 53 232 3.0 11.0 0.02 0.11 0.07 80 1006.8
20260505180108 53 241 4.0 12.0 0.02 0.11 0.07 80 1006.8
20260505180001 53 239 4.0 12.0 0.02 0.11 0.07 80 1006.8
20260505175608 53 246 4.0 12.0 0.02 0.11 0.07 81 1006.7
20260505175523 53 247 4.0 12.0 0.02 0.11 0.07 81 1006.7
20260505175108 53 243 3.0 9.0 0.02 0.11 0.07 82 1006.7
20260505175003 53 244 3.0 9.0 0.02 0.11 0.07 82 1006.7
20260505174608 53 238 2.0 8.0 0.02 0.11 0.07 82 1006.7
20260505174501 53 240 2.0 7.0 0.02 0.11 0.07 83 1006.7
20260505174108 53 270 2.0 7.0 0.02 0.11 0.07 83 1006.7
20260505174002 53 278 2.0 7.0 0.02 0.11 0.07 83 1006.7
20260505173608 53 295 3.0 8.0 0.01 0.10 0.06 84 1006.7
20260505173502 53 298 3.0 8.0 0.01 0.10 0.06 84 1006.7
20260505173108 53 299 2.0 8.0 0.01 0.10 0.06 84 1006.7
20260505173002 53 302 2.0 8.0 0.01 0.10 0.06 84 1006.8
20260505172608 53 77 0.0 3.0 0.01 0.10 0.06 83 1006.9
20260505172523 53 77 0.0 3.0 0.01 0.10 0.06 82 1006.9
20260505172108 53 77 0.0 1.0 0.01 0.10 0.06 81 1006.8
20260505172002 53 77 0.0 2.0 0.01 0.10 0.06 81 1006.7
20260505171608 53 77 0.0 2.0 0.01 0.10 0.06 81 1006.7
20260505171503 53 77 0.0 2.0 0.01 0.10 0.06 81 1006.6